FW3734 Weather Reports


Display with metric or nautical units.
time (UTC)temp
F
wind
direction
speed
MPH
gust
MPH
rain 1hr
in
rain 24hr
in
rain mn
in
humidity
%
barometer
mb
20260507194511 65 186 0.0 5.0 0.00 0.00 0.00 38 1015.0
20260507193009 65 245 0.0 5.0 0.00 0.00 0.00 39 1015.2
20260507191507 65 281 0.0 5.0 0.00 0.00 0.00 40 1015.5
20260507190006 64 346 0.0 1.0 0.00 0.00 0.00 39 1015.6
20260507184502 64 148 0.0 7.0 0.00 0.00 0.00 38 1015.8
20260507183001 65 291 0.0 4.0 0.00 0.00 0.00 41 1015.8
20260507181558 64 355 1.0 10.0 0.00 0.00 0.00 40 1016.1
20260507180054 64 320 1.0 11.0 0.00 0.00 0.00 39 1016.2
20260507174551 63 205 0.0 4.0 0.00 0.00 0.00 43 1016.4
20260507173048 63 213 0.0 3.0 0.00 0.00 0.00 41 1016.6
20260507171550 62 275 0.0 10.0 0.00 0.00 0.00 39 1016.9
20260507170042 62 294 1.0 10.0 0.00 0.00 0.00 38 1017.2
20260507164555 62 355 0.0 4.0 0.00 0.00 0.00 42 1017.4
20260507163038 61 80 0.0 8.0 0.00 0.00 0.00 43 1017.5
20260507161539 60 11 0.0 7.0 0.00 0.00 0.00 44 1017.7
20260507160034 60 234 0.0 1.0 0.00 0.00 0.00 44 1017.8
20260507154527 59 292 1.0 11.0 0.00 0.00 0.00 40 1018.0
20260507153024 59 206 0.0 3.0 0.00 0.00 0.00 45 1018.0
20260507151522 59 265 0.0 4.0 0.00 0.00 0.00 48 1018.2
20260507150020 58 212 0.0 3.0 0.00 0.00 0.00 53 1018.3
20260507144514 56 207 0.0 1.0 0.00 0.00 0.00 60 1018.5
20260507143022 55 200 0.0 0.0 0.00 0.00 0.00 61 1018.6
20260507141507 55 236 0.0 3.0 0.00 0.00 0.00 62 1018.7
20260507140003 53 243 0.0 1.0 0.00 0.00 0.00 67 1018.7
20260507134610 51 215 0.0 0.0 0.00 0.00 0.00 69 1018.7
20260507133059 50 217 0.0 3.0 0.00 0.00 0.00 74 1018.6
20260507131602 48 231 0.0 0.0 0.00 0.00 0.00 81 1018.5
20260507130047 46 225 0.0 0.0 0.00 0.00 0.00 87 1018.7
20260507124544 45 225 0.0 0.0 0.00 0.00 0.00 90 1018.5
20260507123055 43 225 0.0 0.0 0.00 0.00 0.00 91 1018.4
20260507121544 42 225 0.0 1.0 0.00 0.00 0.00 91 1018.4
20260507120040 42 10 0.0 0.0 0.00 0.00 0.00 91 1018.2
20260507114539 41 10 0.0 0.0 0.00 0.00 0.00 91 1018.2
20260507113039 41 10 0.0 0.0 0.00 0.00 0.00 91 1018.0
20260507111539 41 10 0.0 0.0 0.00 0.00 0.00 91 1018.0
20260507110038 41 10 0.0 0.0 0.00 0.00 0.00 91 1017.8
20260507104538 41 10 0.0 0.0 0.00 0.00 0.00 90 1017.6
20260507103034 42 10 0.0 0.0 0.00 0.00 0.00 90 1017.6
20260507101534 42 10 0.0 0.0 0.00 0.00 0.00 89 1017.6
20260507100042 42 10 0.0 0.0 0.00 0.00 0.00 89 1017.6
20260507094533 42 10 0.0 0.0 0.00 0.00 0.00 89 1017.5
20260507093031 42 10 0.0 0.0 0.00 0.00 0.00 89 1017.5
20260507091535 42 10 0.0 0.0 0.00 0.00 0.00 89 1017.6
20260507090029 41 10 0.0 0.0 0.00 0.00 0.00 89 1017.6
20260507084528 42 10 0.0 0.0 0.00 0.00 0.00 88 1017.8
20260507083026 42 10 0.0 0.0 0.00 0.00 0.00 87 1017.8
20260507081524 42 10 0.0 0.0 0.00 0.00 0.00 86 1018.0
20260507080022 42 10 0.0 0.0 0.00 0.00 0.00 85 1018.1
20260507074520 43 10 0.0 0.0 0.00 0.01 0.00 85 1017.9
20260507073018 43 10 0.0 0.0 0.00 0.01 0.00 84 1017.9
20260507071523 43 10 0.0 0.0 0.00 0.01 0.00 83 1017.9
20260507070014 44 10 0.0 0.0 0.00 0.01 0.00 83 1017.9
20260507064511 44 10 0.0 0.0 0.00 0.05 0.00 82 1018.1
20260507063009 44 10 0.0 0.0 0.00 0.05 0.00 80 1017.9
20260507061508 44 10 0.0 0.0 0.00 0.05 0.00 79 1018.1
20260507060005 45 10 0.0 0.0 0.00 0.05 0.00 78 1018.1
20260507054504 45 10 0.0 0.0 0.00 0.07 0.00 78 1018.0
20260507053110 46 10 0.0 0.0 0.00 0.07 0.00 76 1017.9
20260507051607 46 10 0.0 0.0 0.00 0.07 0.00 75 1018.0
20260507050054 47 10 0.0 0.0 0.00 0.07 0.00 74 1017.9
20260507044557 47 10 0.0 0.0 0.00 0.08 0.07 74 1017.8
20260507043055 47 10 0.0 0.0 0.00 0.08 0.07 72 1017.7
20260507041551 48 10 0.0 0.0 0.00 0.08 0.07 72 1017.7
20260507040048 48 10 0.0 0.0 0.00 0.08 0.07 70 1017.7
20260507034549 49 10 0.0 0.0 0.00 0.09 0.07 68 1017.8
20260507033047 50 10 0.0 0.0 0.00 0.09 0.07 66 1017.8
20260507031546 51 10 0.0 1.0 0.00 0.09 0.07 64 1017.7
20260507030046 51 10 0.0 0.0 0.00 0.09 0.07 63 1017.7
20260507024546 51 10 0.0 0.0 0.00 0.10 0.07 62 1017.7
20260507023044 52 10 0.0 0.0 0.00 0.10 0.07 62 1017.6
20260507021544 53 10 0.0 0.0 0.00 0.10 0.07 61 1017.4
20260507020057 53 10 0.0 0.0 0.00 0.10 0.07 60 1017.3
20260507014546 54 10 0.0 0.0 0.00 0.19 0.07 58 1016.9
20260507013042 55 15 0.0 0.0 0.00 0.19 0.07 54 1016.8
20260507011542 56 11 0.0 0.0 0.00 0.19 0.07 53 1016.5
20260507010056 57 36 0.0 1.0 0.00 0.19 0.07 52 1016.2
20260507004539 57 13 0.0 2.0 0.00 0.27 0.07 50 1016.1
20260507003039 58 17 0.0 6.0 0.00 0.27 0.07 47 1016.1
20260507001537 59 5 0.0 0.0 0.00 0.27 0.07 46 1016.1
20260507000037 59 355 0.0 1.0 0.00 0.27 0.07 45 1015.9
20260506234537 60 5 0.0 4.0 0.00 0.39 0.07 45 1015.8
20260506233035 60 355 0.0 6.0 0.00 0.39 0.07 44 1015.8
20260506231544 60 276 0.0 3.0 0.00 0.39 0.07 44 1015.8
20260506230045 60 25 0.0 5.0 0.00 0.39 0.07 45 1015.9
20260506224539 60 5 0.0 0.0 0.00 0.42 0.07 45 1016.0
20260506223035 60 5 0.0 4.0 0.00 0.42 0.07 45 1016.0
20260506221536 60 265 0.0 0.0 0.00 0.42 0.07 46 1016.0
20260506220038 60 40 0.0 4.0 0.00 0.42 0.07 45 1016.1
20260506214537 61 341 0.0 11.0 0.00 0.43 0.07 44 1016.2
20260506213033 62 227 0.0 5.0 0.00 0.43 0.07 44 1016.3
20260506211534 61 38 0.0 9.0 0.00 0.43 0.07 46 1016.2
20260506210031 61 248 0.0 9.0 0.00 0.43 0.07 45 1016.4
20260506204533 60 10 0.0 1.0 0.00 0.43 0.07 46 1016.4
20260506203024 60 11 0.0 4.0 0.00 0.43 0.07 45 1016.8
20260506201530 60 360 0.0 5.0 0.00 0.43 0.07 46 1017.0
20260506200021 60 281 0.0 13.0 0.00 0.43 0.07 44 1017.0